QPF
0.00 0.00 0.00 0.01 0.01 0.02 0.05 0.06 0.15 0.16 0.07 0.02 0.01 0.00 0.00 0.00 0.00 0.00 0.01 0.02 0.02 0.02 0.02 0.04 0.05 0.06 0.05 0.06 0.06 0.06 0.09 0.06 0.05 0.25 0.35 0.29 0.21 0.08
0.00 0.00 0.00 0.00 0.00 0.01 0.01 0.02 0.02 0.03 0.02 0.01 0.01 0.00 0.00 0.00 0.00 0.01 0.00 0.02 0.04 0.04 0.03 0.01 0.01 0.06 0.08 0.07 0.06 0.05 0.04 0.04 0.02 0.05 0.10 0.11 0.11 0.06
0.00 0.00 0.00 0.00 0.00 0.01 0.01 0.02 0.03 0.05 0.05 0.02 0.00 0.01 0.03 0.03 0.04 0.05 0.04 0.04 0.02 0.02 0.02 0.01 0.02 0.06 0.09 0.10 0.08 0.05 0.03 0.02 0.01 0.01 0.03 0.02 0.02 0.02
0.00 0.00 0.00 0.00 0.00 0.00 0.00 0.00 0.00 0.01 0.02 0.01 0.00 0.00 0.02 0.05 0.07 0.08 0.09 0.13 0.15 0.09 0.08 0.05 0.05 0.04 0.04 0.04 0.03 0.02 0.01 0.00 0.00 0.00 0.02 0.03 0.02 0.03
0.00 0.00 0.00 0.00 0.01 0.01 0.02 0.02 0.01 0.01 0.01 0.01 0.00 0.00 0.03 0.05 0.11 0.18 0.22 0.23 0.28 0.36 0.30 0.27 0.22 0.13 0.06 0.03 0.02 0.01 0.00 0.00 0.00 0.01 0.02 0.03 0.02 0.01
0.00 0.00 0.00 0.00 0.00 0.00 0.00 0.01 0.01 0.01 0.01 0.00 0.00 0.00 0.02 0.05 0.12 0.18 0.18 0.16 0.16 0.21 0.23 0.21 0.18 0.13 0.10 0.06 0.02 0.02 0.02 0.02 0.01 0.04 0.06 0.06 0.04 0.02
0.00 0.00 0.00 0.00 0.00 0.00 0.00 0.00 0.00 0.00 0.00 0.00 0.00 0.00 0.00 0.00 0.02 0.06 0.09 0.08 0.07 0.06 0.05 0.05 0.07 0.04 0.01 0.01 0.01 0.01 0.02 0.05 0.12 0.17 0.16 0.11 0.08 0.04
0.00 0.00 0.00 0.00 0.00 0.00 0.00 0.00 0.00 0.00 0.00 0.00 0.00 0.00 0.00 0.00 0.00 0.00 0.00 0.00 0.01 0.02 0.02 0.01 0.01 0.00 0.00 0.00 0.01 0.01 0.02 0.06 0.13 0.18 0.22 0.19 0.13 0.06
0.00 0.00 0.00 0.00 0.00 0.00 0.00 0.00 0.00 0.00 0.00 0.00 0.00 0.00 0.00 0.00 0.00 0.00 0.00 0.00 0.00 0.00 0.00 0.00 0.00 0.00 0.00 0.01 0.02 0.02 0.04 0.07 0.10 0.12 0.16 0.14 0.10 0.05
0.00 0.00 0.00 0.00 0.00 0.00 0.00 0.00 0.00 0.00 0.00 0.00 0.00 0.00 0.00 0.00 0.00 0.00 0.00 0.00 0.00 0.00 0.00 0.00 0.00 0.00 0.00 0.00 0.04 0.03 0.06 0.07 0.09 0.09 0.08 0.06 0.04 0.04
0.00 0.00 0.00 0.00 0.00 0.00 0.00 0.00 0.00 0.00 0.00 0.00 0.00 0.00 0.00 0.00 0.00 0.00 0.00 0.00 0.00 0.00 0.00 0.00 0.00 0.00 0.00 0.00 0.01 0.04 0.03 0.04 0.06 0.06 0.04 0.02 0.01 0.01
0.00 0.00 0.00 0.00 0.00 0.00 0.00 0.00 0.00 0.00 0.00 0.00 0.00 0.00 0.00 0.00 0.00 0.00 0.00 0.00 0.00 0.00 0.00 0.00 0.00 0.00 0.00 0.00 0.00 0.02 0.03 0.06 0.06 0.05 0.03 0.01 0.01 0.00
0.00 0.00 0.00 0.00 0.00 0.00 0.01 0.01 0.01 0.01 0.00 0.00 0.00 0.00 0.00 0.00 0.00 0.00 0.00 0.00 0.00 0.00 0.00 0.00 0.00 0.01 0.01 0.01 0.00 0.02 0.05 0.08 0.10 0.09 0.06 0.03 0.01 0.00
0.00 0.00 0.00 0.00 0.01 0.01 0.01 0.01 0.01 0.01 0.00 0.00 0.00 0.00 0.00 0.00 0.00 0.00 0.00 0.00 0.00 0.00 0.00 0.00 0.00 0.01 0.01 0.01 0.01 0.01 0.04 0.07 0.08 0.11 0.10 0.07 0.03 0.02
0.00 0.00 0.00 0.00 0.00 0.00 0.00 0.00 0.00 0.00 0.00 0.00 0.00 0.00 0.00 0.00 0.00 0.00 0.00 0.00 0.00 0.00 0.00 0.00 0.00 0.00 0.00 0.01 0.01 0.01 0.02 0.04 0.06 0.07 0.08 0.09 0.07 0.03
0.00 0.00 0.00 0.00 0.00 0.00 0.00 0.00 0.00 0.00 0.00 0.00 0.00 0.00 0.00 0.00 0.00 0.00 0.00 0.00 0.00 0.00 0.00 0.00 0.00 0.00 0.00 0.00 0.01 0.01 0.01 0.01 0.02 0.04 0.07 0.09 0.09 0.07
0.00 0.00 0.00 0.00 0.00 0.00 0.00 0.00 0.00 0.00 0.00 0.00 0.00 0.00 0.00 0.00 0.00 0.00 0.00 0.00 0.01 0.01 0.00 0.00 0.00 0.00 0.01 0.01 0.02 0.01 0.01 0.01 0.01 0.02 0.07 0.14 0.12 0.05
0.00 0.00 0.00 0.00 0.00 0.00 0.00 0.00 0.00 0.00 0.00 0.00 0.00 0.00 0.00 0.00 0.00 0.00 0.00 0.01 0.01 0.00 0.00 0.00 0.01 0.01 0.01 0.01 0.03 0.03 0.02 0.02 0.02 0.03 0.05 0.12 0.11 0.07
0.00 0.00 0.00 0.01 0.01 0.00 0.00 0.00 0.00 0.00 0.00 0.00 0.00 0.00 0.00 0.00 0.00 0.00 0.00 0.00 0.00 0.00 0.00 0.01 0.02 0.03 0.05 0.03 0.01 0.01 0.01 0.01 0.02 0.05 0.05 0.07 0.07 0.04
0.00 0.00 0.00 0.00 0.00 0.00 0.00 0.00 0.00 0.00 0.00 0.00 0.00 0.00 0.00 0.00 0.00 0.00 0.00 0.00 0.01 0.01 0.01 0.00 0.02 0.03 0.04 0.01 0.01 0.00 0.00 0.00 0.00 0.02 0.06 0.11 0.11 0.11
0.00 0.00 0.00 0.00 0.00 0.00 0.00 0.00 0.00 0.00 0.00 0.00 0.00 0.00 0.00 0.00 0.00 0.00 0.00 0.01 0.01 0.03 0.03 0.00 0.00 0.02 0.07 0.09 0.12 0.05 0.01 0.02 0.01 0.01 0.02 0.07 0.15 0.20
0.00 0.00 0.00 0.00 0.00 0.00 0.00 0.00 0.00 0.00 0.00 0.00 0.00 0.00 0.00 0.00 0.01 0.01 0.00 0.01 0.01 0.03 0.03 0.01 0.02 0.05 0.07 0.06 0.04 0.02 0.02 0.03 0.07 0.11 0.08 0.06 0.11 0.15
0.00 0.00 0.00 0.00 0.00 0.00 0.00 0.00 0.00 0.00 0.00 0.00 0.00 0.00 0.00 0.01 0.01 0.01 0.01 0.02 0.03 0.04 0.03 0.04 0.07 0.09 0.07 0.04 0.04 0.05 0.07 0.08 0.09 0.14 0.15 0.16 0.14 0.11
MSLP
1012.94 1013.00 1012.91 1013.07 1012.90 1012.64 1012.72 1012.38 1011.85 1010.86 1009.59 1008.41 1008.22 1007.91 1007.94 1007.60 1007.20 1006.97 1007.02 1006.85 1006.81 1007.17 1007.34 1007.53 1007.94 1008.04 1008.00 1008.18 1008.33 1008.74 1009.25 1009.72 1010.15 1010.77 1010.99 1011.46 1012.72 1013.09
1013.53 1013.44 1013.28 1013.46 1012.77 1013.21 1013.49 1013.00 1012.95 1012.09 1011.18 1010.12 1009.44 1009.52 1008.97 1008.32 1007.42 1006.98 1006.34 1006.19 1006.10 1006.48 1006.89 1007.11 1007.46 1007.53 1007.43 1007.63 1007.76 1008.08 1008.71 1009.46 1009.79 1010.15 1010.64 1010.78 1011.61 1012.28
1013.97 1013.84 1013.70 1013.64 1013.38 1013.67 1013.41 1013.07 1013.10 1012.88 1011.70 1010.87 1010.83 1010.07 1009.47 1008.58 1008.17 1006.90 1006.09 1005.82 1005.59 1005.76 1005.89 1006.18 1006.47 1006.66 1006.94 1007.13 1007.63 1007.60 1008.07 1008.56 1008.99 1009.29 1009.53 1010.32 1010.93 1011.62
1014.38 1014.22 1013.72 1013.92 1013.85 1013.97 1013.50 1013.32 1013.44 1013.50 1012.60 1011.55 1010.79 1010.24 1009.95 1009.42 1008.59 1007.70 1006.62 1005.79 1005.42 1004.96 1005.37 1005.68 1005.77 1006.13 1005.98 1006.78 1007.07 1007.31 1007.92 1007.98 1008.21 1008.76 1008.98 1009.39 1010.09 1010.90
1014.83 1014.38 1014.20 1014.06 1013.91 1013.92 1013.69 1013.47 1013.41 1013.49 1013.02 1012.49 1011.22 1010.78 1010.30 1009.28 1008.84 1007.88 1007.05 1006.61 1006.00 1005.88 1005.09 1005.25 1005.18 1005.30 1005.52 1005.85 1006.42 1006.48 1007.08 1007.36 1007.65 1007.83 1008.20 1008.78 1009.22 1009.98
1015.00 1014.75 1014.51 1014.24 1014.05 1013.90 1013.62 1013.57 1013.22 1013.13 1012.88 1012.55 1012.09 1011.55 1010.84 1010.06 1009.56 1008.59 1007.46 1006.87 1006.57 1006.11 1005.64 1005.49 1005.09 1005.36 1005.32 1005.36 1005.60 1005.89 1006.10 1006.30 1006.60 1006.92 1007.18 1007.68 1008.37 1009.06
1015.22 1014.98 1014.62 1014.33 1014.13 1013.77 1013.72 1013.90 1013.61 1013.41 1013.25 1012.99 1012.60 1011.85 1011.22 1010.82 1010.40 1009.80 1008.93 1007.84 1007.12 1006.46 1005.90 1005.71 1005.34 1005.29 1005.05 1004.95 1005.05 1004.98 1005.02 1005.18 1005.33 1005.60 1006.05 1006.69 1007.49 1008.31
1015.27 1015.03 1014.88 1014.60 1014.23 1014.04 1013.87 1013.81 1013.73 1013.44 1013.32 1013.12 1012.73 1012.31 1011.92 1011.59 1011.04 1010.61 1009.92 1009.20 1008.21 1007.02 1007.00 1006.14 1005.87 1005.31 1004.73 1004.42 1004.18 1004.07 1004.02 1004.11 1004.36 1004.60 1005.05 1005.86 1006.86 1007.76
1015.40 1015.05 1014.64 1014.19 1013.98 1013.84 1013.75 1013.62 1013.57 1013.41 1013.21 1012.98 1012.73 1012.44 1012.01 1011.66 1011.35 1010.87 1010.42 1009.86 1009.10 1008.14 1007.89 1006.52 1005.91 1005.31 1004.65 1004.15 1003.80 1003.45 1003.31 1003.31 1003.55 1004.04 1004.68 1005.53 1006.67 1007.50
1015.09 1014.78 1014.48 1014.13 1013.79 1013.46 1013.39 1013.39 1013.32 1013.15 1012.87 1012.50 1012.21 1011.85 1011.56 1011.23 1010.99 1010.71 1010.33 1009.66 1008.99 1008.42 1007.87 1006.48 1005.64 1005.02 1004.33 1003.85 1003.42 1003.14 1003.08 1003.21 1003.69 1004.07 1004.68 1005.51 1006.35 1007.31
1014.89 1014.59 1014.27 1013.93 1013.53 1013.11 1012.94 1013.06 1012.97 1012.63 1012.26 1012.01 1011.69 1011.39 1011.17 1010.85 1010.48 1010.23 1009.85 1009.50 1008.63 1008.21 1007.57 1006.87 1005.93 1005.24 1004.52 1003.70 1003.28 1003.07 1003.16 1003.41 1003.60 1004.00 1004.58 1005.33 1006.17 1006.90
1014.42 1014.20 1013.99 1013.63 1013.22 1012.81 1012.59 1012.64 1012.65 1012.36 1011.99 1011.65 1011.40 1011.01 1010.86 1010.58 1010.24 1010.12 1009.94 1009.48 1008.97 1008.03 1007.10 1007.16 1006.17 1005.76 1004.54 1003.51 1003.23 1002.88 1003.02 1003.10 1003.33 1003.65 1004.19 1004.86 1005.64 1006.67
1014.33 1014.10 1013.83 1013.45 1012.93 1012.46 1012.11 1011.97 1011.86 1011.51 1011.18 1011.34 1011.12 1010.82 1010.53 1010.20 1009.83 1009.65 1009.53 1009.41 1009.03 1008.35 1007.75 1007.36 1006.72 1006.44 1005.59 1004.63 1003.86 1003.28 1002.92 1002.82 1003.24 1003.59 1003.91 1004.42 1005.14 1005.72
1014.15 1013.88 1013.52 1013.01 1012.42 1012.06 1011.66 1011.34 1011.07 1010.83 1010.87 1011.07 1010.93 1010.73 1010.36 1010.00 1009.59 1009.21 1008.95 1008.70 1008.40 1008.01 1007.50 1007.43 1006.75 1006.22 1005.77 1005.14 1004.44 1003.53 1003.04 1002.62 1002.85 1003.19 1003.73 1004.19 1004.78 1005.45
1013.77 1013.38 1012.82 1012.39 1012.00 1011.60 1011.33 1010.91 1010.53 1010.53 1010.56 1010.57 1010.50 1010.33 1009.98 1009.40 1009.07 1008.82 1008.37 1007.80 1007.38 1006.95 1006.53 1006.19 1005.99 1005.53 1005.19 1004.65 1004.33 1003.72 1003.20 1002.61 1002.31 1002.52 1003.11 1003.56 1004.22 1004.91
1013.32 1013.00 1012.56 1011.87 1011.45 1011.07 1010.68 1010.40 1010.16 1009.98 1009.94 1009.91 1009.80 1009.50 1009.12 1008.96 1008.68 1008.39 1008.13 1007.45 1006.81 1005.83 1005.51 1005.14 1004.81 1004.75 1004.25 1003.75 1003.49 1003.05 1002.61 1002.16 1002.10 1002.00 1002.39 1002.85 1003.41 1004.02
1012.54 1012.30 1012.09 1011.67 1011.23 1010.77 1010.35 1009.92 1009.53 1009.48 1009.45 1009.40 1009.30 1009.11 1008.79 1008.53 1008.16 1007.83 1007.61 1007.06 1006.41 1005.42 1004.53 1004.09 1003.75 1003.44 1003.14 1002.91 1002.25 1001.97 1001.62 1001.44 1001.34 1001.56 1001.97 1002.50 1002.90 1003.21
1011.94 1011.90 1011.61 1011.25 1010.78 1010.31 1009.92 1009.60 1009.48 1009.32 1009.16 1009.09 1008.91 1008.76 1008.52 1008.12 1007.69 1007.29 1006.94 1006.52 1005.76 1004.94 1004.22 1003.47 1002.84 1002.45 1002.03 1001.44 1001.40 1000.99 1000.79 1000.50 1000.73 1000.93 1001.34 1001.80 1002.35 1002.77
1012.14 1011.74 1011.30 1010.89 1010.47 1010.13 1009.76 1009.48 1009.17 1008.90 1008.58 1008.49 1008.31 1008.13 1007.90 1007.54 1007.09 1006.61 1006.24 1005.76 1004.93 1004.15 1003.37 1002.81 1002.00 1001.50 1000.88 1000.06 999.70 999.65 999.76 999.73 999.95 1000.31 1000.53 1000.91 1001.39 1002.05
1011.88 1011.44 1010.95 1010.51 1010.13 1009.73 1009.37 1009.07 1008.67 1008.32 1008.10 1007.86 1007.56 1007.30 1007.09 1006.76 1006.25 1005.75 1005.21 1004.60 1003.89 1003.10 1002.39 1001.69 1000.77 1000.17 999.73 999.26 999.07 998.76 998.57 998.66 998.79 999.29 1000.02 1000.70 1001.11 1001.89
1011.39 1011.05 1010.68 1010.21 1009.73 1009.32 1008.90 1008.53 1008.21 1007.83 1007.49 1007.23 1007.06 1006.86 1006.48 1006.08 1005.39 1004.83 1004.30 1003.54 1002.69 1002.10 1001.18 1000.29 999.54 998.83 998.67 998.58 998.34 998.13 997.82 997.86 997.80 998.24 999.09 999.92 1000.94 1001.73
1010.95 1010.56 1010.10 1009.69 1009.28 1008.92 1008.53 1008.13 1007.66 1007.27 1006.97 1006.70 1006.44 1006.15 1005.78 1005.36 1004.70 1004.09 1003.64 1002.97 1002.22 1001.46 1000.36 999.24 998.30 997.98 997.66 997.47 997.21 997.16 997.30 997.45 997.49 997.54 997.85 998.40 999.58 1000.45
1010.45 1009.95 1009.38 1008.91 1008.48 1008.10 1007.76 1007.36 1006.96 1006.52 1006.18 1005.88 1005.61 1005.28 1004.92 1004.41 1004.05 1003.47 1002.79 1002.14 1001.39 1000.44 999.51 998.32 997.49 997.09 996.68 996.51 996.44 996.51 996.69 996.97 997.03 997.63 998.44 998.66 999.05 998.79
Thickness
5534 5535 5537 5537 5541 5545 5545 5549 5557 5570 5585 5599 5602 5604 5604 5608 5611 5614 5615 5619 5622 5618 5619 5621 5619 5620 5623 5621 5621 5619 5616 5614 5611 5609 5607 5605 5597 5594
5516 5519 5521 5522 5529 5526 5524 5529 5531 5541 5554 5568 5575 5576 5579 5586 5596 5601 5606 5610 5614 5611 5610 5611 5610 5611 5614 5613 5612 5611 5609 5603 5601 5601 5599 5601 5596 5592
5502 5503 5505 5507 5509 5508 5511 5515 5516 5520 5535 5547 5546 5553 5559 5567 5572 5586 5594 5598 5602 5602 5604 5604 5604 5604 5604 5604 5601 5603 5601 5597 5595 5596 5598 5594 5592 5588
5486 5488 5492 5490 5492 5491 5496 5500 5500 5501 5511 5525 5532 5537 5539 5542 5551 5563 5575 5584 5589 5595 5594 5593 5593 5594 5597 5593 5593 5592 5589 5590 5590 5589 5591 5592 5588 5584
5470 5473 5475 5477 5479 5479 5482 5485 5487 5486 5490 5499 5512 5517 5521 5529 5534 5544 5554 5562 5569 5573 5580 5581 5584 5584 5585 5585 5582 5586 5585 5585 5585 5586 5586 5584 5585 5582
5458 5459 5460 5462 5464 5466 5470 5471 5474 5474 5476 5482 5488 5493 5500 5509 5514 5525 5537 5545 5551 5557 5562 5564 5570 5570 5572 5575 5577 5577 5579 5580 5581 5582 5583 5582 5581 5578
5444 5444 5446 5448 5450 5453 5455 5453 5455 5456 5458 5463 5468 5477 5483 5488 5492 5499 5509 5522 5530 5537 5545 5549 5556 5558 5563 5566 5566 5570 5573 5574 5576 5577 5578 5577 5575 5571
5433 5433 5433 5433 5435 5437 5438 5437 5440 5442 5442 5444 5451 5456 5461 5465 5472 5478 5486 5494 5507 5518 5521 5532 5537 5545 5553 5557 5562 5566 5569 5570 5570 5571 5572 5570 5566 5563
5418 5419 5421 5423 5424 5424 5426 5426 5426 5428 5431 5433 5436 5439 5446 5450 5456 5461 5466 5473 5485 5496 5498 5516 5523 5534 5542 5549 5555 5560 5562 5565 5566 5565 5563 5560 5554 5552
5405 5406 5407 5407 5408 5411 5411 5410 5410 5411 5415 5420 5424 5428 5432 5437 5441 5447 5453 5461 5472 5480 5486 5502 5514 5524 5533 5540 5547 5553 5555 5556 5555 5555 5553 5549 5546 5542
5389 5389 5390 5390 5393 5395 5395 5392 5393 5396 5400 5403 5407 5411 5416 5420 5426 5432 5438 5446 5458 5466 5473 5483 5497 5505 5515 5527 5535 5540 5543 5544 5546 5546 5544 5542 5538 5535
5373 5372 5371 5372 5375 5377 5377 5377 5376 5377 5381 5384 5387 5391 5395 5400 5405 5409 5416 5424 5433 5447 5456 5461 5475 5483 5502 5513 5519 5527 5531 5534 5536 5537 5537 5535 5532 5528
5357 5356 5354 5354 5355 5357 5358 5357 5357 5360 5366 5364 5366 5369 5371 5376 5382 5388 5393 5399 5409 5419 5427 5433 5446 5456 5467 5486 5494 5505 5515 5521 5522 5524 5525 5526 5524 5524
5334 5334 5333 5333 5335 5335 5335 5336 5337 5339 5338 5338 5341 5344 5348 5352 5356 5360 5368 5377 5385 5395 5402 5406 5421 5431 5442 5457 5472 5483 5494 5505 5509 5512 5513 5514 5514 5513
5319 5319 5319 5317 5316 5315 5313 5313 5314 5310 5309 5311 5313 5316 5320 5328 5333 5336 5343 5350 5361 5371 5380 5388 5396 5407 5418 5434 5447 5457 5469 5482 5493 5499 5500 5503 5504 5504
5305 5301 5298 5298 5296 5294 5293 5291 5289 5287 5286 5286 5289 5293 5296 5297 5304 5307 5316 5324 5335 5346 5353 5362 5372 5382 5396 5411 5422 5439 5449 5462 5471 5481 5485 5489 5492 5494
5297 5289 5282 5276 5273 5270 5268 5266 5265 5262 5260 5260 5262 5264 5268 5272 5277 5278 5285 5295 5307 5321 5331 5337 5347 5358 5373 5385 5403 5418 5432 5441 5451 5459 5464 5468 5476 5483
5280 5269 5262 5256 5253 5249 5246 5244 5239 5237 5234 5233 5233 5234 5238 5242 5246 5250 5256 5263 5277 5289 5302 5313 5322 5335 5348 5367 5380 5394 5408 5423 5429 5436 5444 5451 5457 5466
5258 5249 5243 5237 5234 5230 5228 5224 5222 5219 5217 5215 5212 5213 5217 5221 5225 5228 5231 5237 5250 5262 5272 5284 5297 5310 5327 5347 5362 5373 5387 5400 5408 5413 5425 5436 5445 5450
5247 5237 5230 5225 5221 5217 5213 5210 5209 5208 5205 5205 5205 5205 5206 5210 5213 5217 5221 5226 5233 5243 5254 5262 5276 5287 5301 5321 5334 5347 5359 5375 5388 5396 5402 5410 5420 5428
5246 5237 5229 5223 5218 5213 5209 5205 5203 5202 5203 5202 5199 5197 5201 5203 5208 5211 5215 5223 5232 5236 5245 5253 5262 5272 5280 5289 5306 5324 5337 5350 5365 5374 5381 5389 5395 5404
5244 5238 5232 5226 5221 5216 5212 5209 5208 5207 5205 5203 5202 5201 5202 5204 5208 5211 5213 5219 5225 5233 5244 5255 5263 5268 5273 5280 5293 5305 5310 5321 5337 5349 5364 5374 5383 5393
5243 5238 5234 5230 5226 5221 5217 5214 5212 5210 5209 5208 5206 5206 5207 5210 5210 5214 5219 5223 5230 5238 5247 5259 5267 5272 5277 5279 5284 5288 5295 5302 5314 5325 5334 5353 5365 5389